<?xml version="1.0" encoding="UTF-8" standalone="no" ?>
<gpx xmlns="http://www.topografix.com/GPX/1/1" xmlns:xsi="http://www.w3.org/2001/XMLSchema-instance" xsi:schemaLocation="http://www.topografix.com/GPX/1/1 http://www.topografix.com/GPX/1/1/gpx.xsd" version="1.1" creator="VisuGPX - https://www.visugpx.com">
  <metadata>
    <name>Sentier de Mela</name>
    <desc><![CDATA[Traces du 23/02/2025 en descente et montée]]></desc>
  </metadata>
  <trk>
    <name><![CDATA[Sentier de Mela]]></name>
    <desc><![CDATA[comment ...]]></desc>
    <extensions>
      <line xmlns="http://www.topografix.com/GPX/gpx_style/0/2">
        <color>ff0000</color>
        <opacity>1</opacity>
        <width>5</width>
          <extensions>
            <sens>1</sens>
          </extensions>
      </line>
    </extensions>
    <trkseg>
      <trkpt lat="41.75333" lon="9.27905">
        <ele>274</ele>
        <time>2025-02-23T09:33:46Z</time>
      </trkpt>
      <trkpt lat="41.75335" lon="9.279">
        <ele>278</ele>
        <time>2025-02-23T09:35:16Z</time>
      </trkpt>
      <trkpt lat="41.75334" lon="9.27895">
        <ele>278</ele>
        <time>2025-02-23T09:35:20Z</time>
      </trkpt>
      <trkpt lat="41.75334" lon="9.27888">
        <ele>281</ele>
        <time>2025-02-23T09:35:26Z</time>
      </trkpt>
      <trkpt lat="41.75334" lon="9.27881">
        <ele>281</ele>
        <time>2025-02-23T09:35:32Z</time>
      </trkpt>
      <trkpt lat="41.75332" lon="9.27872">
        <ele>282</ele>
        <time>2025-02-23T09:35:52Z</time>
      </trkpt>
      <trkpt lat="41.75333" lon="9.27865">
        <ele>282</ele>
        <time>2025-02-23T09:35:58Z</time>
      </trkpt>
      <trkpt lat="41.75335" lon="9.27857">
        <ele>278.9</ele>
        <time>2025-02-23T09:36:06Z</time>
      </trkpt>
      <trkpt lat="41.75335" lon="9.2785">
        <ele>279.6</ele>
        <time>2025-02-23T09:36:16Z</time>
      </trkpt>
      <trkpt lat="41.75333" lon="9.27841">
        <ele>279.9</ele>
        <time>2025-02-23T09:36:24Z</time>
      </trkpt>
      <trkpt lat="41.75332" lon="9.27834">
        <ele>280.4</ele>
        <time>2025-02-23T09:36:34Z</time>
      </trkpt>
      <trkpt lat="41.7533" lon="9.27826">
        <ele>281.4</ele>
        <time>2025-02-23T09:36:42Z</time>
      </trkpt>
      <trkpt lat="41.7533" lon="9.27815">
        <ele>283</ele>
        <time>2025-02-23T09:37:00Z</time>
      </trkpt>
      <trkpt lat="41.75329" lon="9.27806">
        <ele>283</ele>
        <time>2025-02-23T09:37:40Z</time>
      </trkpt>
      <trkpt lat="41.75331" lon="9.27787">
        <ele>283</ele>
        <time>2025-02-23T09:38:02Z</time>
      </trkpt>
      <trkpt lat="41.75338" lon="9.27784">
        <ele>283</ele>
        <time>2025-02-23T09:38:12Z</time>
      </trkpt>
      <trkpt lat="41.75343" lon="9.27777">
        <ele>292.1</ele>
        <time>2025-02-23T09:38:22Z</time>
      </trkpt>
      <trkpt lat="41.75348" lon="9.27768">
        <ele>291.7</ele>
        <time>2025-02-23T09:38:52Z</time>
      </trkpt>
      <trkpt lat="41.75355" lon="9.27764">
        <ele>283</ele>
        <time>2025-02-23T09:39:16Z</time>
      </trkpt>
      <trkpt lat="41.75358" lon="9.27761">
        <ele>283</ele>
        <time>2025-02-23T09:39:22Z</time>
      </trkpt>
      <trkpt lat="41.75361" lon="9.27755">
        <ele>293.5</ele>
        <time>2025-02-23T09:39:30Z</time>
      </trkpt>
      <trkpt lat="41.75364" lon="9.27756">
        <ele>284</ele>
        <time>2025-02-23T09:39:36Z</time>
      </trkpt>
      <trkpt lat="41.75367" lon="9.27751">
        <ele>284</ele>
        <time>2025-02-23T09:39:40Z</time>
      </trkpt>
      <trkpt lat="41.75371" lon="9.2775">
        <ele>295.6</ele>
        <time>2025-02-23T09:39:48Z</time>
      </trkpt>
      <trkpt lat="41.75374" lon="9.27748">
        <ele>296.5</ele>
        <time>2025-02-23T09:40:54Z</time>
      </trkpt>
      <trkpt lat="41.75378" lon="9.27746">
        <ele>297.3</ele>
      </trkpt>
      <trkpt lat="41.75383" lon="9.27744">
        <ele>298.6</ele>
      </trkpt>
      <trkpt lat="41.75389" lon="9.2774">
        <ele>299.4</ele>
        <time>2025-02-23T09:42:12Z</time>
      </trkpt>
      <trkpt lat="41.75395" lon="9.27738">
        <ele>299.4</ele>
        <time>2025-02-23T09:42:34Z</time>
      </trkpt>
      <trkpt lat="41.75404" lon="9.27736">
        <ele>299.7</ele>
        <time>2025-02-23T09:42:44Z</time>
      </trkpt>
      <trkpt lat="41.75409" lon="9.27733">
        <ele>299.3</ele>
        <time>2025-02-23T09:42:50Z</time>
      </trkpt>
      <trkpt lat="41.75412" lon="9.27736">
        <ele>301</ele>
        <time>2025-02-23T09:43:02Z</time>
      </trkpt>
      <trkpt lat="41.75417" lon="9.27738">
        <ele>302.4</ele>
      </trkpt>
      <trkpt lat="41.75424" lon="9.2774">
        <ele>292</ele>
        <time>2025-02-23T09:43:20Z</time>
      </trkpt>
      <trkpt lat="41.7543" lon="9.27739">
        <ele>304.2</ele>
        <time>2025-02-23T09:43:24Z</time>
      </trkpt>
      <trkpt lat="41.75433" lon="9.27737">
        <ele>304.3</ele>
        <time>2025-02-23T09:43:32Z</time>
      </trkpt>
      <trkpt lat="41.75439" lon="9.27738">
        <ele>305.2</ele>
        <time>2025-02-23T09:43:40Z</time>
      </trkpt>
      <trkpt lat="41.75444" lon="9.27735">
        <ele>305.9</ele>
        <time>2025-02-23T09:44:14Z</time>
      </trkpt>
      <trkpt lat="41.75444" lon="9.2773">
        <ele>294</ele>
        <time>2025-02-23T09:44:28Z</time>
      </trkpt>
      <trkpt lat="41.7544" lon="9.2772">
        <ele>304.5</ele>
        <time>2025-02-23T09:44:34Z</time>
      </trkpt>
      <trkpt lat="41.75438" lon="9.27716">
        <ele>304.8</ele>
      </trkpt>
      <trkpt lat="41.75437" lon="9.27712">
        <ele>304.8</ele>
        <time>2025-02-23T09:44:38Z</time>
      </trkpt>
      <trkpt lat="41.75436" lon="9.27708">
        <ele>304.9</ele>
      </trkpt>
      <trkpt lat="41.75434" lon="9.27703">
        <ele>305</ele>
        <time>2025-02-23T09:44:44Z</time>
      </trkpt>
      <trkpt lat="41.75434" lon="9.27701">
        <ele>305.2</ele>
      </trkpt>
      <trkpt lat="41.75433" lon="9.27698">
        <ele>305.4</ele>
      </trkpt>
      <trkpt lat="41.75432" lon="9.27693">
        <ele>305.5</ele>
        <time>2025-02-23T09:46:34Z</time>
      </trkpt>
      <trkpt lat="41.75435" lon="9.27693">
        <ele>306.5</ele>
      </trkpt>
      <trkpt lat="41.75437" lon="9.27693">
        <ele>307.3</ele>
      </trkpt>
      <trkpt lat="41.7544" lon="9.27694">
        <ele>308.2</ele>
      </trkpt>
      <trkpt lat="41.75442" lon="9.27695">
        <ele>308.9</ele>
      </trkpt>
      <trkpt lat="41.75443" lon="9.27697">
        <ele>309.2</ele>
        <time>2025-02-23T09:46:54Z</time>
      </trkpt>
      <trkpt lat="41.75446" lon="9.27696">
        <ele>310.3</ele>
      </trkpt>
      <trkpt lat="41.75448" lon="9.27694">
        <ele>311.4</ele>
        <time>2025-02-23T09:47:10Z</time>
      </trkpt>
      <trkpt lat="41.75452" lon="9.27692">
        <ele>312.9</ele>
        <time>2025-02-23T09:47:18Z</time>
      </trkpt>
      <trkpt lat="41.75456" lon="9.27693">
        <ele>314.3</ele>
        <time>2025-02-23T09:47:26Z</time>
      </trkpt>
      <trkpt lat="41.7546" lon="9.27695">
        <ele>315.4</ele>
      </trkpt>
      <trkpt lat="41.75461" lon="9.27703">
        <ele>315.3</ele>
      </trkpt>
      <trkpt lat="41.75465" lon="9.27708">
        <ele>316.8</ele>
        <time>2025-02-23T09:47:56Z</time>
      </trkpt>
      <trkpt lat="41.75468" lon="9.27714">
        <ele>318.2</ele>
        <time>2025-02-23T09:48:08Z</time>
      </trkpt>
      <trkpt lat="41.75472" lon="9.27712">
        <ele>319.9</ele>
      </trkpt>
    </trkseg>
  </trk>
</gpx>